TimeCDT,TemperatureF,Dew PointF,Humidity,Sea Level PressureIn,VisibilityMPH,Wind Direction,Wind SpeedMPH,Gust SpeedMPH,PrecipitationIn,Events,Conditions,WindDirDegrees,DateUTC
12:13 AM,55.4,39.2,54,29.67,10.0,SSE,6.9,-,N/A,,Clear,160,2012-10-16 05:13:00
12:33 AM,55.4,39.2,54,29.67,10.0,SSE,8.1,-,N/A,,Clear,160,2012-10-16 05:33:00
12:53 AM,55.4,39.2,54,29.67,10.0,South,4.6,-,N/A,,Clear,180,2012-10-16 05:53:00
1:14 AM,55.4,39.2,54,29.67,10.0,South,5.8,-,N/A,,Clear,170,2012-10-16 06:14:00
1:33 AM,57.2,39.2,51,29.67,10.0,SSE,3.5,-,N/A,,Scattered Clouds,150,2012-10-16 06:33:00
1:53 AM,57.2,39.2,51,29.66,10.0,SSE,4.6,-,N/A,,Unknown,160,2012-10-16 06:53:00
2:14 AM,57.2,39.2,51,29.65,10.0,SSE,3.5,-,N/A,,Clear,160,2012-10-16 07:14:00
2:33 AM,55.4,39.2,54,29.65,10.0,South,4.6,-,N/A,,Scattered Clouds,170,2012-10-16 07:33:00
2:53 AM,55.4,39.2,54,29.64,10.0,SW,3.5,-,N/A,,Scattered Clouds,220,2012-10-16 07:53:00
3:13 AM,55.4,39.2,54,29.64,10.0,Calm,Calm,-,N/A,,Scattered Clouds,0,2012-10-16 08:13:00
3:33 AM,55.4,39.2,54,29.64,10.0,Calm,Calm,-,N/A,,Unknown,0,2012-10-16 08:33:00
3:53 AM,53.6,39.2,58,29.64,10.0,Calm,Calm,-,N/A,,Unknown,0,2012-10-16 08:53:00
4:13 AM,51.8,39.2,62,29.64,10.0,Calm,Calm,-,N/A,,Clear,0,2012-10-16 09:13:00
4:33 AM,51.8,37.4,58,29.62,10.0,SSE,3.5,-,N/A,,Clear,150,2012-10-16 09:33:00
4:53 AM,51.8,39.2,62,29.61,10.0,SE,4.6,-,N/A,,Clear,140,2012-10-16 09:53:00
5:33 AM,51.8,39.2,62,29.58,10.0,SE,6.9,-,N/A,,Clear,140,2012-10-16 10:33:00
5:53 AM,51.8,39.2,62,29.58,10.0,SSE,5.8,-,N/A,,Clear,150,2012-10-16 10:53:00
6:13 AM,51.8,39.2,62,29.58,10.0,SSE,4.6,-,N/A,,Clear,150,2012-10-16 11:13:00
6:33 AM,51.8,39.2,62,29.57,10.0,SE,6.9,-,N/A,,Clear,140,2012-10-16 11:33:00
7:13 AM,51.8,41.0,67,29.57,10.0,SSE,3.5,-,N/A,,Clear,150,2012-10-16 12:13:00
7:33 AM,51.8,41.0,67,29.57,10.0,Calm,Calm,-,N/A,,Clear,0,2012-10-16 12:33:00
7:53 AM,51.8,42.8,71,29.56,10.0,SSE,3.5,-,N/A,,Clear,150,2012-10-16 12:53:00
8:13 AM,51.8,42.8,71,29.56,10.0,SSE,5.8,-,N/A,,Clear,150,2012-10-16 13:13:00
8:33 AM,51.8,42.8,71,29.55,10.0,Calm,Calm,-,N/A,,Clear,0,2012-10-16 13:33:00
8:53 AM,53.6,42.8,67,29.56,10.0,Calm,Calm,-,N/A,,Clear,0,2012-10-16 13:53:00
9:13 AM,55.4,44.6,67,29.56,10.0,Calm,Calm,-,N/A,,Clear,0,2012-10-16 14:13:00
9:34 AM,60.8,48.2,63,29.55,10.0,South,3.5,-,N/A,,Clear,170,2012-10-16 14:34:00
9:53 AM,62.6,46.4,55,29.55,10.0,SSW,3.5,-,N/A,,Clear,210,2012-10-16 14:53:00
10:13 AM,64.4,46.4,52,29.54,10.0,Calm,Calm,-,N/A,,Clear,0,2012-10-16 15:13:00
10:34 AM,66.2,48.2,52,29.53,10.0,Calm,Calm,-,N/A,,Clear,0,2012-10-16 15:34:00
10:53 AM,66.2,46.4,49,29.53,10.0,SSE,3.5,-,N/A,,Clear,160,2012-10-16 15:53:00
11:13 AM,66.2,44.6,46,29.52,7.0,SE,5.8,-,N/A,,Clear,140,2012-10-16 16:13:00
11:33 AM,66.2,44.6,46,29.52,7.0,South,3.5,-,N/A,,Clear,180,2012-10-16 16:33:00
11:53 AM,66.2,44.6,46,29.51,7.0,SSE,4.6,-,N/A,,Clear,150,2012-10-16 16:53:00
12:14 PM,69.8,46.4,43,29.50,10.0,Calm,Calm,-,N/A,,Clear,0,2012-10-16 17:14:00
12:33 PM,71.6,44.6,38,29.49,10.0,Calm,Calm,-,N/A,,Clear,0,2012-10-16 17:33:00
12:53 PM,69.8,42.8,38,29.48,10.0,Calm,Calm,-,N/A,,Clear,0,2012-10-16 17:53:00
1:14 PM,71.6,44.6,38,29.47,10.0,SE,3.5,-,N/A,,Clear,140,2012-10-16 18:14:00
1:33 PM,71.6,42.8,35,29.46,10.0,North,3.5,-,N/A,,Clear,10,2012-10-16 18:33:00
1:53 PM,71.6,44.6,38,29.45,10.0,NE,3.5,-,N/A,,Clear,50,2012-10-16 18:53:00
2:13 PM,73.4,44.6,36,29.44,10.0,Calm,Calm,-,N/A,,Clear,0,2012-10-16 19:13:00
2:33 PM,75.2,42.8,31,29.44,10.0,SSW,3.5,-,N/A,,Clear,200,2012-10-16 19:33:00
2:53 PM,75.2,44.6,34,29.44,10.0,Calm,Calm,-,N/A,,Clear,0,2012-10-16 19:53:00
3:13 PM,77.0,42.8,29,29.43,10.0,Calm,Calm,-,N/A,,Clear,0,2012-10-16 20:13:00
3:33 PM,75.2,42.8,31,29.43,10.0,SSE,3.5,-,N/A,,Clear,150,2012-10-16 20:33:00
3:53 PM,75.2,42.8,31,29.42,10.0,SSE,3.5,-,N/A,,Clear,150,2012-10-16 20:53:00
4:13 PM,75.2,42.8,31,29.41,10.0,ESE,9.2,-,N/A,,Clear,120,2012-10-16 21:13:00
4:33 PM,73.4,42.8,33,29.42,10.0,SE,3.5,-,N/A,,Clear,130,2012-10-16 21:33:00
4:53 PM,73.4,42.8,33,29.41,10.0,SE,5.8,-,N/A,,Clear,130,2012-10-16 21:53:00
5:13 PM,71.6,42.8,35,29.41,10.0,SE,4.6,-,N/A,,Clear,140,2012-10-16 22:13:00
5:33 PM,68.0,42.8,40,29.40,10.0,SE,5.8,-,N/A,,Clear,130,2012-10-16 22:33:00
5:53 PM,66.2,42.8,43,29.40,10.0,SE,4.6,-,N/A,,Clear,130,2012-10-16 22:53:00
6:13 PM,66.2,44.6,46,29.40,10.0,SE,4.6,-,N/A,,Clear,140,2012-10-16 23:13:00
6:33 PM,62.6,42.8,48,29.39,10.0,SE,5.8,-,N/A,,Clear,130,2012-10-16 23:33:00
6:53 PM,60.8,44.6,55,29.40,10.0,SE,5.8,-,N/A,,Clear,140,2012-10-16 23:53:00
7:13 PM,60.8,42.8,52,29.40,10.0,SE,4.6,-,N/A,,Clear,140,2012-10-17 00:13:00
7:33 PM,57.2,42.8,59,29.40,10.0,SE,4.6,-,N/A,,Clear,140,2012-10-17 00:33:00
7:53 PM,57.2,44.6,63,29.40,10.0,SSE,3.5,-,N/A,,Clear,150,2012-10-17 00:53:00
8:13 PM,57.2,44.6,63,29.40,10.0,SSE,4.6,-,N/A,,Clear,150,2012-10-17 01:13:00
8:33 PM,55.4,42.8,63,29.40,10.0,SSE,3.5,-,N/A,,Clear,150,2012-10-17 01:33:00
8:53 PM,53.6,41.0,62,29.39,10.0,SE,6.9,-,N/A,,Clear,130,2012-10-17 01:53:00
9:13 PM,53.6,42.8,67,29.39,10.0,SE,5.8,-,N/A,,Clear,140,2012-10-17 02:13:00
9:33 PM,53.6,44.6,72,29.39,10.0,SE,4.6,-,N/A,,Clear,140,2012-10-17 02:33:00
9:53 PM,51.8,42.8,71,29.38,10.0,SE,5.8,-,N/A,,Clear,140,2012-10-17 02:53:00
10:13 PM,51.8,44.6,76,29.38,10.0,SE,5.8,-,N/A,,Clear,130,2012-10-17 03:13:00
10:33 PM,51.8,46.4,82,29.37,10.0,SE,5.8,-,N/A,,Clear,130,2012-10-17 03:33:00
10:53 PM,51.8,44.6,76,29.36,10.0,SE,4.6,-,N/A,,Clear,130,2012-10-17 03:53:00
11:13 PM,51.8,46.4,82,29.37,10.0,Calm,Calm,-,N/A,,Clear,0,2012-10-17 04:13:00
11:33 PM,51.8,46.4,82,29.37,10.0,SSE,3.5,-,N/A,,Clear,150,2012-10-17 04:33:00
11:53 PM,48.2,42.8,82,29.36,10.0,SE,3.5,-,N/A,,Clear,130,2012-10-17 04:53:00